VIR8Y KLAX-EGLL

Flight info

Callsign VIR8Y
Flight time N/A
Altitude 35000
Route DOTSS2 CLEEE DCT PKE DCT KA30O DCT KD36Q DCT KD45U DCT KD57A DCT KP69G DCT KG75K DCT BAE DCT ODAXY DCT 4630N08000W DCT MOFAT DCT 52N065W DCT JANJO/M085F350 DCT 56N050W 57N040W 58N030W 58N020W DCT SUNOT DCT KESIX/N0487F350 DCT LUTOV DCT NIPIT DCT BOFUM Q37 MALUD Q38 NUGRA
Aircraft A35K/H-SDE2E3GHIJ3J4J5LM1ORWXY/LB1D1

Departure

Time 2026-05-06 18:39
Airport Los Angeles International Airport (KLAX)

Arrival

Time N/A
Airport London Heathrow Airport (EGLL)
Time Latitude Longitude Altitude Speed Heading
2026-05-06 17:30 33.94532 -118.40979 131 ft 0 kts 263°
2026-05-06 18:25 33.94532 -118.40972 131 ft 3 kts 251°
2026-05-06 18:25 33.94537 -118.40960 128 ft 3 kts 248°
2026-05-06 18:26 33.94542 -118.40943 131 ft 3 kts 257°
2026-05-06 18:26 33.94545 -118.40923 128 ft 3 kts 278°
2026-05-06 18:26 33.94542 -118.40906 131 ft 3 kts 307°
2026-05-06 18:26 33.94533 -118.40894 131 ft 3 kts 335°
2026-05-06 18:27 33.94516 -118.40886 130 ft 3 kts 349°
2026-05-06 18:27 33.94497 -118.40882 131 ft 2 kts 352°
2026-05-06 18:27 33.94490 -118.40881 124 ft 0 kts 352°
2026-05-06 18:32 33.94493 -118.40882 125 ft 0 kts 352°
2026-05-06 18:35 33.94605 -118.40899 125 ft 14 kts 353°
2026-05-06 18:35 33.94705 -118.40913 129 ft 15 kts 355°
2026-05-06 18:35 33.94807 -118.40884 127 ft 15 kts 28°
2026-05-06 18:35 33.94847 -118.40773 128 ft 15 kts 82°
2026-05-06 18:36 33.94860 -118.40642 131 ft 16 kts 83°
2026-05-06 18:36 33.94873 -118.40504 128 ft 17 kts 83°
2026-05-06 18:36 33.94888 -118.40356 129 ft 18 kts 83°
2026-05-06 18:36 33.94904 -118.40202 123 ft 19 kts 83°
2026-05-06 18:37 33.94920 -118.40044 128 ft 17 kts 82°
2026-05-06 18:37 33.94942 -118.39940 128 ft 0 kts 56°
2026-05-06 18:37 33.94945 -118.39935 126 ft 3 kts 53°
2026-05-06 18:37 33.94988 -118.39915 128 ft 11 kts
2026-05-06 18:38 33.95033 -118.39946 125 ft 12 kts 281°
2026-05-06 18:38 33.95007 -118.40308 127 ft 76 kts 263°
2026-05-06 18:38 33.94914 -118.41196 128 ft 134 kts 263°
2026-05-06 18:38 33.94780 -118.42507 295 ft 167 kts 262°
2026-05-06 18:39 33.94607 -118.43841 1111 ft 158 kts 259°
2026-05-06 18:39 33.94399 -118.45172 1667 ft 169 kts 258°
2026-05-06 18:39 33.94252 -118.46678 1923 ft 187 kts 264°
2026-05-06 18:40 33.94188 -118.50119 2517 ft 222 kts 269°
2026-05-06 18:40 33.94111 -118.52012 2934 ft 232 kts 262°
2026-05-06 18:40 33.93471 -118.53861 3237 ft 251 kts 233°
2026-05-06 18:40 33.92083 -118.55177 3693 ft 264 kts 204°
2026-05-06 18:41 33.90272 -118.55669 4275 ft 269 kts 185°
2026-05-06 18:41 33.88383 -118.55734 4834 ft 276 kts 176°
2026-05-06 18:41 33.86455 -118.55463 5406 ft 281 kts 171°
2026-05-06 18:41 33.84510 -118.55106 6049 ft 284 kts 171°
2026-05-06 18:42 33.82692 -118.54751 6670 ft 287 kts 170°
2026-05-06 18:42 33.80720 -118.54351 7312 ft 290 kts 169°
2026-05-06 18:42 33.78687 -118.53931 8012 ft 293 kts 169°
2026-05-06 18:42 33.76697 -118.53508 8717 ft 296 kts 168°
2026-05-06 18:43 33.74660 -118.53079 9411 ft 299 kts 168°
2026-05-06 18:43 33.72601 -118.52639 10102 ft 302 kts 166°
2026-05-06 18:43 33.70610 -118.51759 10449 ft 312 kts 143°
2026-05-06 18:43 33.69116 -118.49856 10753 ft 319 kts 115°
2026-05-06 18:44 33.68265 -118.47380 11094 ft 329 kts 105°
2026-05-06 18:44 33.67520 -118.44717 11423 ft 344 kts 105°
2026-05-06 18:44 33.66738 -118.41976 11741 ft 358 kts 105°
2026-05-06 18:44 33.65892 -118.39073 12071 ft 371 kts 106°
2026-05-06 18:45 33.65026 -118.36088 12425 ft 381 kts 104°
2026-05-06 18:45 33.64497 -118.32971 12908 ft 382 kts 90°
2026-05-06 18:45 33.64442 -118.29804 13442 ft 385 kts 86°
2026-05-06 18:45 33.64456 -118.27609 13820 ft 387 kts 86°
2026-05-06 18:46 33.64477 -118.23312 14500 ft 391 kts 86°
2026-05-06 18:46 33.64485 -118.20038 15001 ft 394 kts 86°
2026-05-06 18:46 33.64489 -118.16732 15548 ft 396 kts 86°
2026-05-06 18:46 33.64490 -118.13408 16068 ft 399 kts 86°
2026-05-06 18:47 33.64490 -118.10086 16622 ft 401 kts 86°
2026-05-06 18:47 33.64488 -118.06724 17187 ft 403 kts 86°
2026-05-06 18:47 33.64485 -118.03358 17789 ft 405 kts 87°
2026-05-06 18:47 33.64481 -117.99960 18360 ft 408 kts 87°
2026-05-06 18:48 33.64476 -117.96537 18860 ft 411 kts 87°
2026-05-06 18:48 33.64470 -117.93103 19337 ft 414 kts 86°
2026-05-06 18:48 33.64463 -117.89647 19815 ft 416 kts 86°
2026-05-06 18:48 33.64455 -117.86155 20307 ft 419 kts 86°
2026-05-06 18:49 33.64447 -117.82646 20805 ft 422 kts 86°
2026-05-06 18:49 33.64601 -117.79134 21289 ft 422 kts 79°
2026-05-06 18:49 33.65154 -117.75675 21800 ft 422 kts 74°
2026-05-06 18:49 33.65825 -117.72235 22301 ft 425 kts 73°
2026-05-06 18:50 33.66502 -117.68776 22822 ft 428 kts 73°
2026-05-06 18:50 33.67181 -117.65283 23344 ft 431 kts 74°
2026-05-06 18:50 33.67855 -117.61785 23828 ft 433 kts 74°
2026-05-06 18:50 33.68536 -117.58242 24259 ft 436 kts 73°
2026-05-06 18:51 33.69218 -117.54688 24706 ft 438 kts 74°
2026-05-06 18:51 33.69891 -117.51170 25149 ft 440 kts 74°
2026-05-06 18:51 33.70573 -117.47588 25604 ft 442 kts 74°
2026-05-06 18:51 33.71261 -117.43977 26049 ft 444 kts 74°
2026-05-06 18:52 33.71952 -117.40348 26522 ft 446 kts 74°
2026-05-06 18:52 33.72644 -117.36711 26974 ft 448 kts 74°
2026-05-06 18:52 33.73338 -117.33048 27403 ft 450 kts 74°
2026-05-06 18:52 33.74036 -117.29363 27812 ft 452 kts 74°
2026-05-06 18:53 33.74709 -117.25655 28227 ft 456 kts 76°
2026-05-06 18:53 33.75086 -117.21843 28599 ft 462 kts 84°
2026-05-06 18:53 33.75084 -117.17969 29024 ft 466 kts 87°
2026-05-06 18:53 33.74999 -117.14079 29410 ft 468 kts 87°
2026-05-06 18:54 33.74911 -117.10174 29912 ft 466 kts 87°
2026-05-06 18:54 33.74825 -117.06287 30431 ft 464 kts 87°
2026-05-06 18:54 33.74741 -117.02408 30905 ft 462 kts 87°
2026-05-06 18:54 33.74658 -116.98571 31364 ft 460 kts 86°
2026-05-06 18:55 33.74576 -116.94762 31823 ft 457 kts 86°
2026-05-06 18:55 33.74492 -116.90944 32259 ft 455 kts 86°
2026-05-06 18:55 33.74407 -116.87143 32681 ft 453 kts 86°
2026-05-06 18:55 33.74322 -116.83369 33081 ft 451 kts 86°
2026-05-06 18:56 33.74266 -116.80893 33337 ft 450 kts 86°
2026-05-06 18:56 33.74181 -116.77196 33692 ft 448 kts 86°
2026-05-06 18:56 33.74095 -116.73467 34025 ft 447 kts 86°
2026-05-06 18:56 33.74007 -116.69729 34345 ft 446 kts 86°
2026-05-06 18:57 33.73919 -116.65999 34498 ft 448 kts 86°
2026-05-06 18:57 33.73833 -116.62258 34654 ft 450 kts 86°
2026-05-06 18:57 33.73739 -116.58490 34974 ft 449 kts 86°
2026-05-06 18:57 33.73645 -116.54723 35086 ft 453 kts 86°
2026-05-06 18:58 33.73550 -116.50933 35095 ft 458 kts 86°
2026-05-06 18:58 33.73352 -116.43289 35090 ft 458 kts 86°
2026-05-06 18:59 33.73151 -116.35638 35078 ft 457 kts 86°
2026-05-06 18:59 33.72946 -116.28005 35057 ft 458 kts 87°
2026-05-06 19:00 33.72736 -116.20351 35054 ft 458 kts 87°
2026-05-06 19:00 33.72522 -116.12699 35056 ft 459 kts 87°
2026-05-06 19:01 33.73059 -116.05148 35054 ft 449 kts 72°
2026-05-06 19:01 33.74891 -115.98030 35059 ft 448 kts 68°
2026-05-06 19:02 33.76902 -115.90957 35057 ft 448 kts 68°
2026-05-06 19:02 33.78911 -115.83849 35057 ft 449 kts 68°
2026-05-06 19:03 33.80889 -115.76733 35063 ft 449 kts 68°
2026-05-06 19:03 33.82859 -115.69582 35062 ft 449 kts 68°
2026-05-06 19:04 33.84815 -115.62458 35062 ft 449 kts 68°
2026-05-06 19:04 33.86762 -115.55353 35063 ft 450 kts 69°
2026-05-06 19:05 33.88717 -115.48203 35066 ft 450 kts 69°
2026-05-06 19:05 33.90673 -115.41026 35059 ft 451 kts 69°
2026-05-06 19:06 33.92638 -115.33808 35058 ft 451 kts 69°
2026-05-06 19:06 33.94570 -115.26692 35054 ft 452 kts 69°
2026-05-06 19:07 33.96518 -115.19494 35050 ft 452 kts 69°
2026-05-06 19:07 33.98466 -115.12278 35049 ft 453 kts 69°